Miscellaneous Local Product
Issued by NWS Hastings, NE

Home | Current Version | Previous Version | Text Only | Print | Product List | Glossary On
Versions: 1 2 3 4 5 6 7 8 9 10 11 12 13 14 15 16 17 18 19 20 21 22 23 24 25 26 27 28 29 30 31 32 33 34 35 36 37 38 39 40 41 42 43 44 45 46 47 48 49 50
956
AXUS43 KGID 051502
MISGRI

GID CWA HOURLY WEATHER ROUNDUP
NATIONAL WEATHER SERVICE HASTINGS NE
900 AM CST MON DEC 05 2016

NOTE: "FAIR" INDICATES FEW OR NO CLOUDS BELOW 12,000 FEET WITH NO
SIGNIFICANT WEATHER AND/OR OBSTRUCTIONS TO VISIBILITY.

...SOUTH CENTRAL NEBRASKA...

CITY           SKY/WX    TMP DP  RH WIND       PRES   REMARKS
GRAND ISLAND   CLOUDY    37  28  70 S12       29.63F WCI  29
HASTINGS       MOSUNNY   36  27  69 S14       29.64F WCI  27
KEARNEY        CLOUDY    37  25  60 S12       29.60F WCI  30
ORD            PTSUNNY   37  23  56 S10       29.58F WCI  30
YORK           PTSUNNY   36  28  75 S13       29.67S WCI  27
AURORA         MOSUNNY   36  29  76 S15       29.64F WCI  26
LEXINGTON      CLOUDY    35  25  65 CALM      29.61R
HOLDREGE       CLOUDY    35  26  70 S9G16     29.60F WCI  28
HEBRON         MOSUNNY   36  29  75 S14       29.69F WCI  27

...NEBRASKA PANHANDLE...

CITY           SKY/WX    TMP DP  RH WIND       PRES   REMARKS
CHADRON        PTCLDY    32  25  75 W5        29.57R WCI  27
ALLIANCE       CLOUDY    37  22  54 SW10      29.53S WCI  30
SCOTTSBLUFF    CLOUDY    43  22  43 NW8       29.55R
SIDNEY         CLOUDY    45  22  40 W14       29.57S

...WESTERN AND NORTH CENTRAL NEBRASKA...

CITY           SKY/WX    TMP DP  RH WIND       PRES   REMARKS
VALENTINE      PTCLDY    43  22  43 SW10      29.48F
AINSWORTH      CLEAR     40  25  54 SW8       29.49F WCI  35
ONEILL         CLOUDY    38  24  57 S12       29.53F WCI  30
BROKEN BOW     CLOUDY    35  25  66 S7        29.59R WCI  29
IMPERIAL       CLOUDY    33  18  53 W3        29.58R
NORTH PLATTE   CLOUDY    34  21  59 CALM      29.59F
MCCOOK         CLOUDY    29  22  75 CALM      29.58F

...EASTERN NEBRASKA...

CITY           SKY/WX    TMP DP  RH WIND       PRES   REMARKS
NORFOLK        CLOUDY    37  27  67 S17G24    29.61F WCI  27
SO SIOUX CITY  MOSUNNY   40  30  67 S14       29.66F WCI  32
TEKAMAH        CLOUDY    34  30  85 SE15      29.71F WCI  24
COLUMBUS       CLOUDY    37  28  70 S17       29.65F WCI  28
ALBION         MOSUNNY   35  28  76 SE9       29.61F WCI  28
OMAHA EPPLEY   PTSUNNY   39  31  72 S18       29.75F WCI  30
MILLARD        CLOUDY    36  31  82 SE8       29.76S WCI  30
LINCOLN        CLOUDY    39  30  70 S10       29.73F WCI  32
NEBRASKA CITY  SUNNY     36  32  85 S17       29.77F WCI  25
BEATRICE       SUNNY     38  32  78 S15       29.73F WCI  29
FALLS CITY     SUNNY     37  34  89 S14       29.81F WCI  28

...NORTHERN KANSAS...

CITY           SKY/WX    TMP DP  RH WIND       PRES   REMARKS
GOODLAND       CLOUDY    36  17  46 W8        29.56F WCI  30
HILL CITY      SUNNY     39  27  62 SW12      29.62F WCI  32
NORTON         SUNNY     36  21  55 S7        29.59F WCI  30
PHILLIPSBURG   SUNNY     39  28  65 SE3       29.64F
SMITH CENTER   SUNNY     36  28  75 S7        29.67S WCI  30
BELOIT         SUNNY     36  28  75 SE14      29.69F WCI  27
HAYS           SUNNY     38  28  67 S18       29.66F WCI  28
RUSSELL        SUNNY     38  30  73 S20       29.65F WCI  28
CONCORDIA      SUNNY     39  31  72 S16       29.71F WCI  30
SALINA         SUNNY     39  33  79 S15       29.75F WCI  31
TOPEKA         SUNNY     38  34  85 SE10      29.85F WCI  31



USA.gov is the U.S. government's official web portal to all federal, state and local government web resources and services.